CFG3510 EDDF-LIRF

Flight info

Callsign CFG3510
Flight time 1h 20m
Altitude 37000
Route CINDY8S/18 CINDY Z74 LAMPU DCT NOMBO Y161 RIDAR DCT KONIN DCT BERAS DCT LIKDA DCT BAKOR DCT VESAL DCT GAVRA DCT RITEB
Aircraft A320/M-SDE3FGHIJ1LORVWXYZ/S

Departure

Time 2026-04-15 12:06
Airport Frankfurt Main Airport (EDDF)

Arrival

Time 2026-04-15 13:27
Airport Rome–Fiumicino Leonardo da Vinci International Airport (LIRF)
Time Latitude Longitude Altitude Speed Heading
2026-04-15 11:32 50.04090 8.55757 360 ft 0 kts 160°
2026-04-15 12:00 50.04089 8.55758 379 ft 2 kts 160°
2026-04-15 12:00 50.04045 8.55782 354 ft 7 kts 160°
2026-04-15 12:00 50.04003 8.55752 352 ft 9 kts 239°
2026-04-15 12:01 50.03971 8.55633 356 ft 14 kts 249°
2026-04-15 12:01 50.03940 8.55505 349 ft 11 kts 249°
2026-04-15 12:01 50.03915 8.55400 353 ft 10 kts 250°
2026-04-15 12:01 50.03891 8.55300 351 ft 10 kts 249°
2026-04-15 12:02 50.03859 8.55165 353 ft 18 kts 250°
2026-04-15 12:02 50.03815 8.54978 352 ft 19 kts 250°
2026-04-15 12:02 50.03767 8.54775 350 ft 21 kts 249°
2026-04-15 12:02 50.03713 8.54552 347 ft 24 kts 249°
2026-04-15 12:03 50.03654 8.54302 344 ft 25 kts 250°
2026-04-15 12:03 50.03593 8.54047 343 ft 25 kts 250°
2026-04-15 12:03 50.03535 8.53802 339 ft 24 kts 250°
2026-04-15 12:03 50.03482 8.53579 338 ft 21 kts 249°
2026-04-15 12:04 50.03433 8.53373 334 ft 21 kts 249°
2026-04-15 12:04 50.03379 8.53149 336 ft 23 kts 249°
2026-04-15 12:04 50.03320 8.52902 332 ft 23 kts 250°
2026-04-15 12:04 50.03277 8.52723 333 ft 15 kts 249°
2026-04-15 12:05 50.03217 8.52614 334 ft 12 kts 206°
2026-04-15 12:05 50.03137 8.52596 333 ft 14 kts 179°
2026-04-15 12:05 50.03014 8.52596 333 ft 19 kts 180°
2026-04-15 12:05 50.02882 8.52600 335 ft 20 kts 179°
2026-04-15 12:06 50.02558 8.52602 331 ft 82 kts 179°
2026-04-15 12:06 50.01779 8.52610 334 ft 139 kts 180°
2026-04-15 12:06 50.00659 8.52621 414 ft 176 kts 179°
2026-04-15 12:06 49.99411 8.52633 968 ft 181 kts 179°
2026-04-15 12:07 49.98154 8.52654 1713 ft 183 kts 178°
2026-04-15 12:07 49.96868 8.53005 2096 ft 198 kts 150°
2026-04-15 12:07 49.95883 8.54600 2371 ft 220 kts 117°
2026-04-15 12:07 49.95121 8.56808 2775 ft 244 kts 118°
2026-04-15 12:08 49.94286 8.59183 3459 ft 254 kts 118°
2026-04-15 12:08 49.93425 8.61612 4364 ft 259 kts 119°
2026-04-15 12:08 49.92550 8.64066 5297 ft 261 kts 120°
2026-04-15 12:08 49.91662 8.66544 6187 ft 265 kts 120°
2026-04-15 12:09 49.90753 8.69074 6982 ft 271 kts 120°
2026-04-15 12:09 49.89825 8.71651 7759 ft 276 kts 120°
2026-04-15 12:09 49.88878 8.74275 8553 ft 281 kts 121°
2026-04-15 12:09 49.87915 8.76936 9350 ft 285 kts 120°
2026-04-15 12:10 49.86936 8.79641 10131 ft 290 kts 121°
2026-04-15 12:10 49.85934 8.82407 10639 ft 304 kts 120°
2026-04-15 12:10 49.84853 8.85380 10858 ft 328 kts 120°
2026-04-15 12:10 49.83696 8.88558 11150 ft 346 kts 120°
2026-04-15 12:11 49.82505 8.91838 11758 ft 353 kts 120°
2026-04-15 12:11 49.81296 8.95176 12449 ft 357 kts 120°
2026-04-15 12:11 49.80089 8.98505 13136 ft 361 kts 120°
2026-04-15 12:11 49.78850 9.01916 13825 ft 365 kts 120°
2026-04-15 12:12 49.77594 9.05365 14475 ft 369 kts 120°
2026-04-15 12:12 49.76406 9.08907 15012 ft 375 kts 113°
2026-04-15 12:12 49.75619 9.12765 15632 ft 378 kts 104°
2026-04-15 12:12 49.74840 9.16686 16212 ft 382 kts 113°
2026-04-15 12:13 49.73611 9.20331 16798 ft 384 kts 124°
2026-04-15 12:13 49.71959 9.23583 17418 ft 386 kts 133°
2026-04-15 12:13 49.70197 9.26672 18036 ft 389 kts 132°
2026-04-15 12:13 49.68410 9.29818 18639 ft 391 kts 132°
2026-04-15 12:14 49.66610 9.32998 19140 ft 395 kts 133°
2026-04-15 12:14 49.64791 9.36213 19631 ft 399 kts 132°
2026-04-15 12:14 49.62941 9.39433 20109 ft 403 kts 135°
2026-04-15 12:14 49.60818 9.42276 20577 ft 406 kts 146°
2026-04-15 12:15 49.58417 9.44590 21068 ft 409 kts 151°
2026-04-15 12:15 49.55956 9.46821 21540 ft 413 kts 150°
2026-04-15 12:15 49.53470 9.49082 22031 ft 416 kts 150°
2026-04-15 12:15 49.50989 9.51347 22522 ft 418 kts 149°
2026-04-15 12:16 49.48474 9.53649 22958 ft 422 kts 149°
2026-04-15 12:16 49.45941 9.55964 23409 ft 426 kts 149°
2026-04-15 12:16 49.43389 9.58287 23855 ft 428 kts 150°
2026-04-15 12:16 49.40809 9.60628 24220 ft 431 kts 149°
2026-04-15 12:17 49.38250 9.62948 24567 ft 434 kts 149°
2026-04-15 12:17 49.35649 9.65323 24897 ft 438 kts 147°
2026-04-15 12:17 49.33197 9.68110 25211 ft 441 kts 138°
2026-04-15 12:17 49.30994 9.71393 25519 ft 443 kts 134°
2026-04-15 12:18 49.28804 9.74756 25849 ft 446 kts 134°
2026-04-15 12:18 49.26604 9.78121 26174 ft 449 kts 134°
2026-04-15 12:18 49.24378 9.81520 26505 ft 452 kts 134°
2026-04-15 12:18 49.22139 9.84932 26813 ft 455 kts 134°
2026-04-15 12:19 49.19887 9.88356 27131 ft 458 kts 134°
2026-04-15 12:19 49.17621 9.91792 27418 ft 461 kts 134°
2026-04-15 12:19 49.15337 9.95249 27709 ft 463 kts 134°
2026-04-15 12:19 49.13040 9.98718 27998 ft 466 kts 134°
2026-04-15 12:20 49.10755 10.02164 28283 ft 469 kts 133°
2026-04-15 12:20 49.08430 10.05672 28549 ft 472 kts 133°
2026-04-15 12:20 49.06091 10.09204 28811 ft 474 kts 133°
2026-04-15 12:20 49.03714 10.12709 29076 ft 477 kts 134°
2026-04-15 12:21 49.01283 10.16181 29351 ft 480 kts 135°
2026-04-15 12:21 48.98821 10.19621 29632 ft 482 kts 135°
2026-04-15 12:21 48.96332 10.23066 29863 ft 485 kts 135°
2026-04-15 12:21 48.93838 10.26522 30108 ft 487 kts 135°
2026-04-15 12:22 48.91331 10.30019 30324 ft 489 kts 134°
2026-04-15 12:22 48.88836 10.33523 30589 ft 489 kts 134°
2026-04-15 12:22 48.86345 10.37038 30858 ft 488 kts 134°
2026-04-15 12:22 48.83656 10.40197 31127 ft 493 kts 148°
2026-04-15 12:23 48.80618 10.42630 31368 ft 494 kts 151°
2026-04-15 12:23 48.77554 10.44997 31626 ft 494 kts 151°
2026-04-15 12:23 48.74486 10.47349 31893 ft 494 kts 151°
2026-04-15 12:23 48.71453 10.49667 32157 ft 494 kts 151°
2026-04-15 12:24 48.68350 10.52033 32437 ft 494 kts 150°
2026-04-15 12:24 48.65274 10.54376 32698 ft 494 kts 150°
2026-04-15 12:24 48.62243 10.56689 32950 ft 494 kts 150°
2026-04-15 12:24 48.59170 10.59034 33204 ft 495 kts 150°
2026-04-15 12:25 48.56098 10.61376 33458 ft 494 kts 150°
2026-04-15 12:25 48.53024 10.63718 33736 ft 494 kts 150°
2026-04-15 12:25 48.49952 10.66054 34003 ft 494 kts 150°
2026-04-15 12:25 48.46878 10.68387 34258 ft 494 kts 150°
2026-04-15 12:26 48.43807 10.70715 34491 ft 494 kts 150°
2026-04-15 12:26 48.40738 10.73036 34740 ft 493 kts 150°
2026-04-15 12:26 48.37671 10.75352 34986 ft 493 kts 150°
2026-04-15 12:26 48.34609 10.77664 35217 ft 492 kts 150°
2026-04-15 12:27 48.31553 10.79971 35479 ft 491 kts 150°
2026-04-15 12:27 48.28537 10.82247 35717 ft 490 kts 150°
2026-04-15 12:27 48.25498 10.84536 35925 ft 490 kts 150°
2026-04-15 12:27 48.22456 10.86818 36138 ft 489 kts 150°
2026-04-15 12:28 48.19416 10.89093 36348 ft 488 kts 150°
2026-04-15 12:28 48.16373 10.91367 36550 ft 487 kts 150°
2026-04-15 12:28 48.13339 10.93633 36748 ft 487 kts 150°
2026-04-15 12:28 48.10315 10.95891 36943 ft 486 kts 150°
2026-04-15 12:29 48.07291 10.98146 37157 ft 485 kts 150°
2026-04-15 12:29 48.01249 11.02639 37216 ft 485 kts 150°
2026-04-15 12:30 47.95204 11.07131 37217 ft 485 kts 150°
2026-04-15 12:30 47.89173 11.11614 37219 ft 483 kts 150°
2026-04-15 12:31 47.83161 11.16049 37216 ft 482 kts 150°
2026-04-15 12:31 47.77148 11.20455 37217 ft 482 kts 150°
2026-04-15 12:32 47.71134 11.24873 37208 ft 482 kts 150°
2026-04-15 12:32 47.65162 11.29255 37197 ft 482 kts 150°
2026-04-15 12:33 47.59149 11.33656 37210 ft 482 kts 150°
2026-04-15 12:33 47.53128 11.38043 37221 ft 482 kts 150°
2026-04-15 12:34 47.47120 11.42411 37198 ft 481 kts 150°
2026-04-15 12:34 47.41114 11.46762 37185 ft 480 kts 150°
2026-04-15 12:35 47.35093 11.51116 37182 ft 481 kts 150°
2026-04-15 12:35 47.29095 11.55450 37177 ft 480 kts 150°
2026-04-15 12:36 47.23094 11.59764 37178 ft 480 kts 150°
2026-04-15 12:36 47.17083 11.64070 37203 ft 480 kts 151°
2026-04-15 12:37 47.11090 11.68363 37185 ft 479 kts 150°
2026-04-15 12:37 47.05073 11.72551 37178 ft 480 kts 156°
2026-04-15 12:38 46.98584 11.74726 37165 ft 485 kts 175°
2026-04-15 12:38 46.91832 11.74555 37166 ft 486 kts 181°
2026-04-15 12:39 46.85065 11.74166 37152 ft 486 kts 181°
2026-04-15 12:39 46.78303 11.73799 37153 ft 486 kts 181°
2026-04-15 12:40 46.71555 11.73435 37155 ft 486 kts 181°
2026-04-15 12:40 46.64839 11.73073 37149 ft 486 kts 181°
2026-04-15 12:41 46.58088 11.72713 37152 ft 485 kts 181°
2026-04-15 12:41 46.51333 11.72338 37144 ft 486 kts 181°
2026-04-15 12:42 46.44580 11.71953 37145 ft 486 kts 181°
2026-04-15 12:42 46.37803 11.71602 37153 ft 486 kts 179°
2026-04-15 12:43 46.31048 11.71739 37165 ft 485 kts 176°
2026-04-15 12:43 46.24310 11.72203 37168 ft 485 kts 176°
2026-04-15 12:44 46.17569 11.72600 37172 ft 485 kts 176°
2026-04-15 12:44 46.10863 11.72882 37177 ft 485 kts 177°
2026-04-15 12:45 46.04115 11.73146 37176 ft 485 kts 177°
2026-04-15 12:45 45.97361 11.73427 37178 ft 485 kts 177°
2026-04-15 12:46 45.91758 11.73669 37175 ft 484 kts 177°
2026-04-15 12:46 45.85010 11.73958 37180 ft 485 kts 177°
2026-04-15 12:47 45.77175 11.74302 37179 ft 484 kts 177°
2026-04-15 12:47 45.71537 11.74549 37172 ft 484 kts 177°
2026-04-15 12:48 45.64841 11.74824 37174 ft 484 kts 177°
2026-04-15 12:48 45.58110 11.75097 37175 ft 484 kts 177°
2026-04-15 12:49 45.51385 11.75383 37204 ft 483 kts 178°
2026-04-15 12:49 45.44676 11.75673 37197 ft 481 kts 178°
2026-04-15 12:50 45.37980 11.75950 37193 ft 480 kts 178°
2026-04-15 12:50 45.31303 11.76219 37187 ft 480 kts 178°
2026-04-15 12:51 45.24637 11.76493 37174 ft 479 kts 178°
2026-04-15 12:51 45.17981 11.76774 37176 ft 478 kts 178°
2026-04-15 12:52 45.11328 11.77046 37169 ft 478 kts 178°
2026-04-15 12:52 45.04713 11.77317 37166 ft 478 kts 178°
2026-04-15 12:53 44.98072 11.77599 37161 ft 478 kts 177°
2026-04-15 12:53 44.91422 11.77890 37152 ft 478 kts 177°
2026-04-15 12:54 44.84775 11.78160 37151 ft 478 kts 178°
2026-04-15 12:54 44.78127 11.78425 37151 ft 478 kts 178°
2026-04-15 12:55 44.71477 11.78692 37156 ft 477 kts 178°
2026-04-15 12:55 44.64842 11.78960 37174 ft 477 kts 178°
2026-04-15 12:56 44.58222 11.79230 37181 ft 475 kts 178°
2026-04-15 12:56 44.51638 11.79507 37176 ft 473 kts 178°
2026-04-15 12:57 44.45102 11.79774 37168 ft 472 kts 178°
2026-04-15 12:57 44.38534 11.80036 37167 ft 472 kts 178°
2026-04-15 12:58 44.31984 11.80295 37165 ft 471 kts 178°
2026-04-15 12:58 44.25435 11.80554 37152 ft 470 kts 178°
2026-04-15 12:59 44.15617 11.80949 37155 ft 470 kts 178°
2026-04-15 12:59 44.09084 11.81229 37147 ft 470 kts 178°
2026-04-15 13:00 44.02549 11.81491 37140 ft 470 kts 178°
2026-04-15 13:00 43.96017 11.81746 37135 ft 470 kts 178°
2026-04-15 13:01 43.89528 11.82008 37126 ft 470 kts 178°
2026-04-15 13:01 43.82992 11.82269 37111 ft 470 kts 178°
2026-04-15 13:02 43.76492 11.82938 37101 ft 467 kts 165°
2026-04-15 13:02 43.70155 11.84952 36523 ft 467 kts 166°
2026-04-15 13:03 43.66993 11.85948 35802 ft 467 kts 167°
2026-04-15 13:03 43.63819 11.86946 35117 ft 467 kts 166°
2026-04-15 13:03 43.60656 11.87944 34448 ft 465 kts 167°
2026-04-15 13:03 43.57525 11.88938 33918 ft 458 kts 167°
2026-04-15 13:04 43.54443 11.89920 33125 ft 449 kts 166°
2026-04-15 13:04 43.51416 11.90889 31845 ft 445 kts 166°
2026-04-15 13:04 43.48414 11.91845 30651 ft 439 kts 166°
2026-04-15 13:04 43.45482 11.92770 29736 ft 426 kts 166°
2026-04-15 13:05 43.42639 11.93667 29034 ft 422 kts 166°
2026-04-15 13:05 43.39805 11.94558 28183 ft 413 kts 166°
2026-04-15 13:05 43.37027 11.95428 27193 ft 407 kts 165°
2026-04-15 13:05 43.34283 11.96284 26169 ft 402 kts 165°
2026-04-15 13:06 43.31571 11.97137 25210 ft 397 kts 166°
2026-04-15 13:06 43.28855 11.97994 24426 ft 401 kts 165°
2026-04-15 13:06 43.26145 11.98851 23899 ft 397 kts 166°
2026-04-15 13:06 43.23450 11.99701 23242 ft 397 kts 166°
2026-04-15 13:07 43.20764 12.00545 22638 ft 395 kts 166°
2026-04-15 13:07 43.18088 12.01382 22081 ft 393 kts 165°
2026-04-15 13:07 43.15436 12.02211 21606 ft 388 kts 164°
2026-04-15 13:07 43.12813 12.03029 21098 ft 385 kts 165°
2026-04-15 13:08 43.10202 12.03843 20588 ft 383 kts 165°
2026-04-15 13:08 43.07612 12.04649 20100 ft 380 kts 163°
2026-04-15 13:08 43.05053 12.05446 19643 ft 376 kts 163°
2026-04-15 13:08 43.02508 12.06241 19147 ft 374 kts 165°
2026-04-15 13:09 43.00002 12.07025 18632 ft 374 kts 165°
2026-04-15 13:09 42.97468 12.07816 18076 ft 374 kts 164°
2026-04-15 13:09 42.94940 12.08606 17546 ft 371 kts 163°
2026-04-15 13:09 42.92431 12.09390 17047 ft 369 kts 165°
2026-04-15 13:10 42.89940 12.10163 16584 ft 365 kts 165°
2026-04-15 13:10 42.87478 12.10921 16146 ft 361 kts 165°
2026-04-15 13:10 42.85028 12.11679 15693 ft 358 kts 165°
2026-04-15 13:10 42.82611 12.12424 15299 ft 354 kts 165°
2026-04-15 13:11 42.80224 12.13162 15020 ft 351 kts 165°
2026-04-15 13:11 42.77895 12.13880 14994 ft 330 kts 165°
2026-04-15 13:11 42.75736 12.14540 14965 ft 309 kts 164°
2026-04-15 13:11 42.73667 12.15171 14468 ft 302 kts 165°
2026-04-15 13:12 42.71635 12.15794 13892 ft 298 kts 163°
2026-04-15 13:12 42.69673 12.16632 13143 ft 294 kts 158°
2026-04-15 13:12 42.67641 12.17086 12470 ft 298 kts 181°
2026-04-15 13:12 42.65594 12.16563 12014 ft 300 kts 190°
2026-04-15 13:13 42.63566 12.15959 11660 ft 298 kts 189°
2026-04-15 13:13 42.61540 12.15375 11299 ft 297 kts 189°
2026-04-15 13:13 42.59545 12.14814 10965 ft 296 kts 188°
2026-04-15 13:13 42.57510 12.14252 10619 ft 295 kts 188°
2026-04-15 13:14 42.55501 12.13700 10266 ft 294 kts 188°
2026-04-15 13:14 42.53501 12.13152 9930 ft 292 kts 188°
2026-04-15 13:14 42.51534 12.12612 9568 ft 291 kts 188°
2026-04-15 13:14 42.49557 12.12070 9190 ft 289 kts 188°
2026-04-15 13:15 42.47586 12.11526 8797 ft 288 kts 189°
2026-04-15 13:15 42.45622 12.10985 8428 ft 286 kts 189°
2026-04-15 13:15 42.43680 12.10450 8111 ft 282 kts 187°
2026-04-15 13:15 42.41791 12.09929 7984 ft 271 kts 188°
2026-04-15 13:16 42.39977 12.09453 7853 ft 259 kts 184°
2026-04-15 13:16 42.38237 12.09472 7680 ft 244 kts 168°
2026-04-15 13:16 42.36556 12.10072 6930 ft 258 kts 160°
2026-04-15 13:16 42.34763 12.10649 6297 ft 269 kts 165°
2026-04-15 13:17 42.32924 12.11136 6047 ft 270 kts 166°
2026-04-15 13:17 42.31080 12.11595 5921 ft 270 kts 167°
2026-04-15 13:17 42.29255 12.12040 5483 ft 270 kts 167°
2026-04-15 13:17 42.27408 12.12495 5026 ft 270 kts 167°
2026-04-15 13:18 42.25567 12.12954 4572 ft 270 kts 168°
2026-04-15 13:18 42.23719 12.13419 4136 ft 270 kts 168°
2026-04-15 13:18 42.21876 12.13885 4014 ft 271 kts 167°
2026-04-15 13:18 42.20018 12.14357 4018 ft 272 kts 167°
2026-04-15 13:19 42.18163 12.14828 4002 ft 268 kts 168°
2026-04-15 13:19 42.16369 12.15281 3882 ft 256 kts 168°
2026-04-15 13:19 42.14662 12.15711 3775 ft 245 kts 168°
2026-04-15 13:19 42.13007 12.16128 3529 ft 240 kts 168°
2026-04-15 13:20 42.11371 12.16544 3239 ft 239 kts 167°
2026-04-15 13:20 42.09732 12.16961 2984 ft 239 kts 168°
2026-04-15 13:20 42.08172 12.17360 2729 ft 236 kts 168°
2026-04-15 13:20 42.06592 12.17761 2681 ft 223 kts 167°
2026-04-15 13:21 42.05150 12.18123 2692 ft 199 kts 168°
2026-04-15 13:21 42.03817 12.18448 2755 ft 194 kts 171°
2026-04-15 13:21 42.02531 12.18742 2712 ft 187 kts 166°
2026-04-15 13:21 42.01268 12.19180 2499 ft 188 kts 163°
2026-04-15 13:22 42.00025 12.19677 2536 ft 186 kts 161°
2026-04-15 13:22 41.98786 12.20192 2504 ft 187 kts 160°
2026-04-15 13:22 41.97528 12.20719 2495 ft 191 kts 160°
2026-04-15 13:22 41.96256 12.21253 2359 ft 191 kts 162°
2026-04-15 13:23 41.95033 12.21767 2144 ft 173 kts 161°
2026-04-15 13:23 41.93940 12.22226 1935 ft 159 kts 162°
2026-04-15 13:23 41.92907 12.22660 1726 ft 153 kts 161°
2026-04-15 13:23 41.91895 12.23086 1532 ft 151 kts 162°
2026-04-15 13:24 41.90899 12.23504 1337 ft 149 kts 163°
2026-04-15 13:24 41.89907 12.23921 1133 ft 150 kts 162°
2026-04-15 13:24 41.88915 12.24348 947 ft 149 kts 163°
2026-04-15 13:24 41.87930 12.24764 755 ft 147 kts 166°
2026-04-15 13:25 41.86980 12.25154 574 ft 142 kts 168°
2026-04-15 13:25 41.86025 12.25543 380 ft 147 kts 166°
2026-04-15 13:25 41.85063 12.25963 150 ft 142 kts 166°
2026-04-15 13:25 41.84164 12.26341 25 ft 128 kts 168°
2026-04-15 13:26 41.83418 12.26641 13 ft 98 kts 162°
2026-04-15 13:26 41.82831 12.26888 13 ft 82 kts 162°
2026-04-15 13:26 41.82331 12.27099 9 ft 69 kts 162°
2026-04-15 13:26 41.81907 12.27277 12 ft 59 kts 162°
2026-04-15 13:27 41.81561 12.27419 15 ft 46 kts 163°
2026-04-15 13:27 41.81325 12.27516 13 ft 28 kts 172°
2026-04-15 13:27 41.81196 12.27476 13 ft 15 kts 213°
2026-04-15 13:27 41.81148 12.27388 12 ft 12 kts 245°
2026-04-15 13:28 41.81085 12.27316 14 ft 13 kts 194°
2026-04-15 13:28 41.81000 12.27331 12 ft 12 kts 164°
2026-04-15 13:28 41.80926 12.27352 12 ft 10 kts 175°
2026-04-15 13:28 41.80871 12.27344 12 ft 7 kts 190°
2026-04-15 13:29 41.80832 12.27334 13 ft 5 kts 191°
2026-04-15 13:29 41.80804 12.27327 13 ft 4 kts 191°
2026-04-15 13:29 41.80777 12.27320 13 ft 8 kts 190°
2026-04-15 13:29 41.80696 12.27287 13 ft 14 kts 213°
2026-04-15 13:30 41.80643 12.27176 13 ft 15 kts 250°
2026-04-15 13:30 41.80603 12.27037 13 ft 17 kts 249°
2026-04-15 13:30 41.80564 12.26898 13 ft 15 kts 250°
2026-04-15 13:30 41.80544 12.26824 16 ft 11 kts 250°
2026-04-15 13:32 41.80530 12.26772 15 ft 11 kts 250°
2026-04-15 13:32 41.80501 12.26668 16 ft 12 kts 250°
2026-04-15 13:32 41.80470 12.26552 17 ft 14 kts 250°
2026-04-15 13:32 41.80443 12.26455 17 ft 5 kts 250°
2026-04-15 13:33 41.80428 12.26400 16 ft 8 kts 249°
2026-04-15 13:33 41.80408 12.26328 16 ft 3 kts 250°
2026-04-15 13:33 41.80405 12.26315 15 ft 0 kts 250°
2026-04-15 13:33 41.80401 12.26303 15 ft 6 kts 250°
2026-04-15 13:34 41.80384 12.26239 16 ft 8 kts 250°
2026-04-15 13:34 41.80360 12.26153 15 ft 12 kts 250°
2026-04-15 13:34 41.80340 12.26077 14 ft 14 kts 250°
2026-04-15 13:34 41.80303 12.25942 14 ft 16 kts 250°
2026-04-15 13:35 41.80250 12.25752 14 ft 17 kts 250°
2026-04-15 13:35 41.80207 12.25592 15 ft 19 kts 250°
2026-04-15 13:35 41.80160 12.25420 14 ft 20 kts 249°
2026-04-15 13:35 41.80111 12.25249 14 ft 19 kts 249°
2026-04-15 13:36 41.80056 12.25181 14 ft 16 kts 206°
2026-04-15 13:36 41.79951 12.25116 14 ft 18 kts 204°
2026-04-15 13:36 41.79835 12.25042 14 ft 19 kts 205°
2026-04-15 13:36 41.79766 12.25003 14 ft 5 kts 182°
2026-04-15 13:37 41.79748 12.25037 14 ft 4 kts 120°
2026-04-15 13:37 41.79735 12.25072 14 ft 4 kts 114°
2026-04-15 13:37 41.79731 12.25084 15 ft 0 kts 115°